Flag for U.S.A. Weather past 2 weeks in Jefferson City, Missouri, U.S.A.

Now
74 °F

Clear.


Feels Like: 73 °F
Forecast: 68 / 89 °F
Wind: 5 mph from Southeast

Location: Jefferson City Memorial Airport

Current Time: Aug 30, 2014 at 9:51:38 PM

Latest Report: Aug 30, 2014 at 8:53 PM


Visibility: 10 mi

Pressure: 29.87 "Hg

Humidity: 85%

Dew point: 69 °F

Location of Jefferson CityLocation

Historic Weather in Jefferson City — Graph

°F

Jefferson City temperature yesterday

Maximum temperature yesterday: 91 °F (at 1:53 PM)
Minimum temperature yesterday: 70 °F (at 5:53 AM)
Average temperature yesterday: 78 °F

Past Weeks' High & Low Weather Summary

 TemperatureHumidityPressure
High97 °F (Aug 22, 5:53 PM)100% (Aug 19, 5:53 AM)30.06 "Hg (Aug 19, 5:53 AM)
Low66 °F (Aug 19, 5:53 AM)36% (Aug 24, 3:53 PM)29.73 "Hg (Aug 19, 6:53 PM)
Average80 °F74%29.89 "Hg
* Reported Aug 15 7:53 PM — Aug 30 7:53 PM, Jefferson City, Weather by CustomWeather, © 2014

Note: Actual official high and low records may vary slightly from our data, if they occured in-between our weather recording intervals... More about our weather records

Advertising

Jefferson City weather history for previous 24 hours

 ConditionsComfort  
Time TempWeatherWind HumidityBarometerVisibility
7:53 PM
Aug 30
76 °FSunny.3 mph80%29.85 "Hg10 mi
6:53 PM78 °FSunny.5 mph71%29.85 "Hg10 mi
5:53 PM81 °FSunny.8 mph65%29.85 "Hg10 mi
4:53 PM84 °FPassing clouds.6 mph67%29.83 "Hg10 mi
3:53 PM86 °FScattered clouds.8 mph63%29.82 "Hg10 mi
2:53 PM89 °FPassing clouds.7 mph50%29.84 "Hg10 mi
1:53 PM88 °FScattered clouds.9 mph54%29.85 "Hg10 mi
12:53 PM86 °FScattered clouds.9 mph59%29.87 "Hg10 mi
11:53 AM84 °FSunny.9 mph65%29.89 "Hg10 mi
10:53 AM81 °FScattered clouds.7 mph72%29.89 "Hg10 mi
9:53 AM77 °FSunny.7 mph77%29.90 "Hg10 mi
8:53 AM74 °FMostly cloudy.No wind85%29.90 "Hg10 mi
7:53 AM73 °FSunny.5 mph84%29.88 "Hg10 mi
6:53 AM71 °FClear.No wind90%29.88 "Hg10 mi
5:53 AM71 °FClear.6 mph90%29.87 "Hg10 mi
4:53 AM72 °FClear.6 mph91%29.86 "Hg10 mi
3:53 AM73 °FRain. Passing clouds.6 mph88%29.87 "Hg8 mi
2:53 AM72 °FPassing clouds.5 mph87%29.87 "Hg10 mi
1:53 AM72 °FClear.No wind87%29.86 "Hg10 mi
12:53 AM73 °FClear.3 mph84%29.86 "Hg10 mi
11:53 PM
Aug 29
73 °FClear.5 mph88%29.85 "Hg10 mi
10:53 PM75 °FClear.6 mph82%29.85 "Hg10 mi
9:53 PM75 °FClear.No wind88%29.85 "Hg10 mi
Weather by CustomWeather, © 2014

See weather overviewHow to use our weather pages